STARLINK-1766 (46677 NORAD) Tracking and Keplerian Element Data

This shows tracking and keplerian element data for the satellite.

Feedback or suggestion? Click here.




ElementValue
Catalog46677
NameSTARLINK-1766
Epoch Orbit1614
Epoch Day27.25001157
Epoch Year2021
RAAN344.8714
Inclination53.0563
Eccentricity0.0001695
Argument of Perigee54.4317
Mean Anonmoly345.3426
Mean Motion15.06377369
Decay Rate0.00018673
L11 46677U 20073H 21027.25001157 .00018673 00000-0 12699-2 0 9999
L22 46677 53.0563 344.8714 0001695 54.4317 345.3426 15.06377369 16146

Live tracking and technical data element details for STARLINK-1766 (NORAD 46677). STARLINK-1766 can be tracked NOW for your location showing map with azimuth and elevation plus other details from your city location.

Track the satellite on the map from your city or location and see movement details for azimuth, elevation, latitude, longitude, range, height, and movement on the map or in text.







IsCatalogInMostPopularTable: catalog: 46677, numindb: 32
Update: records affected: 1



GetName: 46677 STARLINK-1766

Hit Count: updated at: Thu, 28 Jan 2021 11:49:06 GMT